Lexington Weather

Lexington, Massachusetts, USA

34°F
10/30/2020 6:49am 
  • Lexington Conditions: Light snow, Mist, Overcast
  • Temperature: 34.0°F / 1.1°CColder 1.2°F than last hour.
  • Dew Point: 33.3°FDecreased 1.2°Fsince last hour.
  • Relative Humidity: 97
  • Wind: Wind from NNE NNE 3 mph, 10-min avg: 2 mph, gust: 4 mph
  • Barometer: 29.76 in Steady
  • Visibility: 4 miles
  • Rain Today: 0.09 in
  •   
Southeast Middlesex County - Winter Weather Advisory
 - SEE ALL NEARBY ALERTS -

Regional Weather Roundup
for Boston / Norton, MA

        
000
ASUS41 KBOX 241004
RWRBOX

REGIONAL WEATHER ROUNDUP
NATIONAL WEATHER SERVICE BOSTON/NORTON MA
600 AM EDT SAT OCT 24 2020

NOTE:  "FAIR" INDICATES FEW OR NO CLOUDS BELOW 12,000 FEET WITH NO 
SIGNIFICANT WEATHER AND/OR OBSTRUCTIONS TO VISIBILITY.

MAZALL-241100-
EASTERN MASSACHUSETTS
  
CITY           SKY/WX    TMP DP  RH WIND       PRES   REMARKS
BOSTON         CLOUDY    56  52  86 S7        29.98F                  
BEVERLY        CLOUDY    56  53  90 S6        29.97F                  
LAWRENCE       CLOUDY    57  52  83 SW7       29.99S                  
BEDFORD        CLOUDY    56  52  86 S7        29.96F                  
BLUE HILL        N/A     53  52  96 S8        29.97F                  
NORWOOD        CLOUDY    56  53  90 SE5       29.97F                  
MARSHFIELD     CLOUDY    57  55  94 CALM      29.98F                  
PLYMOUTH       CLOUDY    55  53  93 W6        29.99F                  
TAUNTON        CLOUDY    57  53  86 SE3       29.99S                  
NEW BEDFORD    CLOUDY    58  53  84 CALM      29.98F                  
$$

MAZALL-241100-
CAPE COD AND THE ISLANDS
  
CITY           SKY/WX    TMP DP  RH WIND       PRES   REMARKS
FALMOUTH       CLOUDY    57  54  88 SW6       29.99S                  
HYANNIS        CLOUDY    58  55  90 CALM      29.97S                  
CHATHAM        CLOUDY    59  53  80 S3        29.99F                  
PROVINCETOWN   CLOUDY    57  54  89 SW5       29.99F                  
NANTUCKET      CLOUDY    57  57 100 CALM      29.98S                  
MARTHAS VNYRD  CLOUDY    55  53  93 NW5       29.98F                  
$$
 
MAZALL-241100-
CENTRAL AND WESTERN MASSACHUSETTS
  
CITY           SKY/WX    TMP DP  RH WIND       PRES   REMARKS
WORCESTER      FOG       55  54  96 S7        29.97F VSB 1/2          
FITCHBURG      CLOUDY    55  54  96 SE7       29.96F FOG              
ORANGE         CLOUDY    60  57  89 S7        29.95S                  
SPRINGFIELD    CLOUDY    60  57  91 S6        29.94S                  
WESTFIELD      CLOUDY    60  59  96 S8        29.94F                  
NORTH ADAMS    CLOUDY    63  55  75 N6        29.92S                  
PITTSFIELD     CLOUDY    61  55  81 SW7       29.92S                  
$$
 
RIZALL-241100-
RHODE ISLAND
  
CITY           SKY/WX    TMP DP  RH WIND       PRES   REMARKS
PROVIDENCE     CLOUDY    57  55  93 SE3       29.98F                  
NEWPORT        CLOUDY    56  54  93 CALM      29.99R                  
BLOCK ISLAND   CLOUDY    57  54  89 SE3       29.99S                  
SMITHFIELD     CLOUDY    55  54  96 VRB3        N/A                   
WESTERLY       CLOUDY    57  54  89 CALM      29.99S                  
$$
 
CTZALL-241100-
CONNECTICUT
  
CITY           SKY/WX    TMP DP  RH WIND       PRES   REMARKS
BRADLEY INTL   CLOUDY    60  57  89 S10       29.95S                  
HARTFORD       CLOUDY    61  57  87 S6        29.96S                  
BRIDGEPORT     CLOUDY    64  60  87 S9        29.96F                  
DANBURY        CLOUDY    61  58  90 S5          N/A                   
GROTON         CLOUDY    60  54  80 S6        29.98S                  
NEW HAVEN      CLOUDY    65  62  90 S8        29.97S                  
CHESTER        CLOUDY    59  59 100 CALM      29.98F                  
MERIDEN        CLOUDY    60  59  96 S5        29.97S                  
WILLIMANTIC    CLOUDY    57  54  89 S5        29.98F                  
OXFORD         CLOUDY    59  59 100 S5        29.98S FOG              
$$

MEZ002-015-021-024-NHZ003-005-008-011-012-014-VTZ005-008-241100-
NORTHERN NEW ENGLAND
  
CITY           SKY/WX    TMP DP  RH WIND       PRES   REMARKS
PORTLAND ME    CLOUDY    55  54  96 S7        29.97F                  
BANGOR ME      CLOUDY    54  51  90 S12       29.96F                  
CONCORD NH     CLOUDY    55  53  93 S8        29.95F FOG              
MANCHESTER NH  CLOUDY    56  52  86 S7        29.95S                  
NASHUA NH      CLOUDY    55  55 100 CALM      29.97S FOG              
PORTSMOUTH NH  CLOUDY    55  55  98 S7        29.95F FOG              
JAFFREY NH     CLOUDY    58  54  86 S8        29.95F                  
KEENE NH       CLOUDY    60  56  86 S7        29.93F                  
BURLINGTON VT  MOCLDY    64  55  72 S21G29    29.79F                  
MT. WASHINGTON LGT RAIN  43  43 100 W46G53      N/A  VSB 0   WCI  30  
$$

NYZ052-076-241100-
EASTERN NEW YORK
  
CITY           SKY/WX    TMP DP  RH WIND       PRES   REMARKS
ALBANY         MOCLDY    59  57  93 S10       29.90S                  
NEW YORK CITY  CLOUDY    65  58  78 S9        29.95F                  
$$
 
ANZALL-241100-
MARINE OBSERVATIONS
  
STATION/POSITION TIME  TEMP    WIND        PRES    VSBY  WAVE
                       AIR SEA DIR/SP/G                  HT/PER
                 (UTC) (F)     (DEG/KT/KT) (MB)    (MI)  (FT/S)
BOSTON BUOY      0950   57 58  220/ 10/ 12 1014.1F         4/12
BUZZARDS BAY     0900           CALM  /  1 1016.6F
NANTUCKET SOUND  0950      62  130/  2/  4   N/A           1/11
MASS BAY-STELLWA 0904   57 58  250/  6/ 10 1014.6F  1 7/8  4/11
ISLE OF SHOALS   0900   56     220/ 11/ 12 1014.8F
S OF BLOCK IS    0926      63                N/A           6/13
$$

......................KEY.........................
  SKY/WX - SKY CONDITION/PRESENT WEATHER
  TMP    - TEMPERATURE IN FAHRENHEIT
  DWPT   - DEWPOINT IN FAHRENHEIT
  RH     - RELATIVE HUMIDITY IN PERCENT
  WIND   - DIRECTION AND SPEED IN MPH
  PRES   - MEAN SEA LEVEL PRESSURE IN INCHES OF HG
  WCI    - WIND CHILL INDEX
  VSB    - VISIBILITY IN MILES
  HX     - HEAT INDEX
  TC     - TEMPERATURE IN CELSIUS
  VRB    - VARIABLE WIND DIRECTION
  N/A    - NOT AVAILABLE
  
      

Other recent Regional Weather Roundups

Fri Oct 30, 6:04am

Fri Oct 30, 5:04am

Fri Oct 30, 4:04am

Fri Oct 30, 3:04am

Fri Oct 30, 2:04am

Fri Oct 30, 1:04am

Fri Oct 30, 12:04am

Thu Oct 29, 11:04pm

Thu Oct 29, 10:04pm

Thu Oct 29, 9:04pm

Thu Oct 29, 8:04pm

Thu Oct 29, 7:04pm

Thu Oct 29, 6:04pm

Thu Oct 29, 5:05pm

Thu Oct 29, 4:05pm

Thu Oct 29, 3:05pm

Thu Oct 29, 2:04pm

Thu Oct 29, 1:04pm

Thu Oct 29, 12:04pm

Thu Oct 29, 11:04am

Thu Oct 29, 10:04am

Thu Oct 29, 9:04am

Thu Oct 29, 8:04am

Thu Oct 29, 7:04am

Thu Oct 29, 6:04am

Thu Oct 29, 5:04am

Thu Oct 29, 4:04am

Thu Oct 29, 3:04am

Thu Oct 29, 2:04am

Thu Oct 29, 1:05am

Thu Oct 29, 12:04am

Wed Oct 28, 11:05pm

Wed Oct 28, 10:04pm

Wed Oct 28, 9:04pm

Wed Oct 28, 8:04pm

Wed Oct 28, 7:05pm

Wed Oct 28, 6:04pm

Wed Oct 28, 5:05pm

Wed Oct 28, 4:04pm

Wed Oct 28, 3:04pm

Wed Oct 28, 2:04pm

Wed Oct 28, 1:05pm

Wed Oct 28, 12:05pm

Wed Oct 28, 11:05am

Wed Oct 28, 10:04am

Wed Oct 28, 9:04am

Wed Oct 28, 8:04am

Wed Oct 28, 7:04am

Wed Oct 28, 6:04am

Wed Oct 28, 5:05am

Wed Oct 28, 4:04am

Wed Oct 28, 3:04am

Wed Oct 28, 2:04am

Wed Oct 28, 1:05am

Wed Oct 28, 12:04am

Tue Oct 27, 11:04pm

Tue Oct 27, 10:04pm

Tue Oct 27, 9:05pm

Tue Oct 27, 8:04pm

Tue Oct 27, 7:04pm

Tue Oct 27, 6:04pm

Tue Oct 27, 5:04pm

Tue Oct 27, 4:05pm

Tue Oct 27, 3:04pm

Tue Oct 27, 2:04pm

Tue Oct 27, 1:04pm

Tue Oct 27, 12:04pm

Tue Oct 27, 11:04am

Tue Oct 27, 10:04am

Tue Oct 27, 9:04am

Tue Oct 27, 8:04am

Tue Oct 27, 7:04am

Tue Oct 27, 6:04am

Tue Oct 27, 5:04am

Tue Oct 27, 4:04am

Tue Oct 27, 3:04am

Tue Oct 27, 2:05am

Tue Oct 27, 1:04am

Tue Oct 27, 12:04am

Mon Oct 26, 11:05pm

Mon Oct 26, 10:04pm

Mon Oct 26, 9:04pm

Mon Oct 26, 8:04pm

Mon Oct 26, 7:04pm

Mon Oct 26, 6:04pm

Mon Oct 26, 5:04pm

Mon Oct 26, 4:05pm

Mon Oct 26, 2:04pm

Mon Oct 26, 1:04pm

Mon Oct 26, 12:04pm

Mon Oct 26, 11:05am

Mon Oct 26, 10:04am

Mon Oct 26, 9:04am

Mon Oct 26, 8:04am

Mon Oct 26, 7:04am

Mon Oct 26, 6:04am

Mon Oct 26, 5:04am

Mon Oct 26, 4:04am

Mon Oct 26, 3:04am

Mon Oct 26, 2:04am

Mon Oct 26, 1:04am

Mon Oct 26, 12:04am

Sun Oct 25, 11:05pm

Sun Oct 25, 10:04pm

Sun Oct 25, 9:04pm

Sun Oct 25, 8:04pm

Sun Oct 25, 7:04pm

Sun Oct 25, 6:04pm

Sun Oct 25, 5:04pm

Sun Oct 25, 4:05pm

Sun Oct 25, 3:04pm

Sun Oct 25, 2:04pm

Sun Oct 25, 1:04pm

Sun Oct 25, 12:04pm

Sun Oct 25, 11:04am

Sun Oct 25, 10:04am

Sun Oct 25, 9:04am

Sun Oct 25, 8:04am

Sun Oct 25, 7:04am

Sun Oct 25, 6:04am

Sun Oct 25, 5:04am

Sun Oct 25, 4:04am

Sun Oct 25, 3:04am

Sun Oct 25, 2:04am

Sun Oct 25, 1:05am

Sun Oct 25, 12:04am

Sat Oct 24, 11:04pm

Sat Oct 24, 10:04pm

Sat Oct 24, 9:04pm

Sat Oct 24, 8:04pm

Sat Oct 24, 7:04pm

Sat Oct 24, 6:04pm

Sat Oct 24, 5:05pm

Sat Oct 24, 4:04pm

Sat Oct 24, 3:04pm

Sat Oct 24, 2:04pm

Sat Oct 24, 1:05pm

Sat Oct 24, 12:04pm

Sat Oct 24, 11:05am

Sat Oct 24, 10:05am

Sat Oct 24, 9:04am

Sat Oct 24, 8:04am

Sat Oct 24, 7:04am

Sat Oct 24, 5:04am

Sat Oct 24, 4:04am

Sat Oct 24, 3:04am

Sat Oct 24, 2:04am

Sat Oct 24, 1:05am

Sat Oct 24, 12:04am

Fri Oct 23, 11:04pm

Fri Oct 23, 10:04pm

Fri Oct 23, 9:04pm

Fri Oct 23, 8:05pm

Fri Oct 23, 7:04pm

Fri Oct 23, 6:04pm

Fri Oct 23, 5:05pm

Fri Oct 23, 4:04pm

Fri Oct 23, 3:04pm

Fri Oct 23, 2:05pm

Fri Oct 23, 1:04pm

Fri Oct 23, 12:04pm

Fri Oct 23, 11:04am

Fri Oct 23, 10:04am

Fri Oct 23, 9:04am

Fri Oct 23, 8:04am

Fri Oct 23, 7:04am

Meta data:

ID: 455efc35-dd47-4d28-a9e3-33a0a696785c
Link: https://api.weather.gov/products/455efc35-dd47-4d28-a9e3-33a0a696785c